STARLINK-1366, 45569

Orbit data source: Space-Track

STARLINK-1366, 45569 is a payload satellite owned by SpaceX/Seattle (US) in LEO that was launched on Wed, 22 Apr 2020 UTC via an FALCON 9 launch vehicle from the Air Force Eastern Test Range (AFETR). Payloads include a variety of satellites, spacecraft, and rockets equipped with specific instruments for various scientific and technological missions. These include communications satellites like Starlink; space stations such as the ISS; scientific satellites like the Hubble; Earth observation satellites from companies like Planet Labs, Umbra, and HawkEye 360; GPS; miniature CubeSats for education and research; and military/defense satellites.

Loading next visibility...
STARLINK-1366 details
Identifier
45569, 2020-025AQ
Orbit
LEO
Last TLE update12 hours ago
Origin
Flag of USSpaceX/Seattle (US)
ManufacturerSpaceX/Seattle
MissionOperational Commercial Communications
Bus & MotorSTARLINK, Unknown motor
Mass260 kg wet, ~248 kg dry
Launch date (UTC)
2020-04-22 (5 years ago)
Launch vehicle
FALCON 9
Launch site
Air Force Eastern Test Range (AFETR)
Object type
Payload
Rocket body
Debris
Shape & HBRBox + 1 Pan, 8.86 m
Radar Cross Section13.562 m², Large (>1 m²)

Expand to show TLE details & history

TLE from 12 hours ago
0 STARLINK-1366
1 45569U 20025AQ  24361.00998452  .00016960  00000-0  11542-2 0  9998
2 45569  53.0538 255.9277 0001162  80.1330 279.9790 15.06418184259240
Epoch: 2024-12-26T00:14Z
Definitive object data (Epoch: 2024-12-26T00:14:22.662Z)
Latitude-0.00003°
Longitude157.33772°
Altitude547.896 km
Speed7.589 km/s
True Right ascension17h 03m 42s
True Declination0° 00' 00"
Sunlit
Object was in daylight at TLE epoch
Visualization TLE readout
Latitude-5.56103°
Longitude-20.72607°
Altitude549.083 km
Speed7.588 km/s
Apparent Right ascension02h 57m 39s
Apparent Declination-28° 10' 45"
Sunlit
Object is in full shadow
Visualization observer readout
Local Sidereal Time11:34:09
Azimuth269.557° W
Elevation-46.855°
Doppler factor1
Orbital elements
Apogee altitude548.231 km
Perigee altitude546.622 km
Semi-major axis6,925.564 km
Eccentricity0.0001162
Inclination53.0538°
RAAN255.9277°
Arg. of periapsis80.133°
True anomaly279.96589°
Mean anomaly279.979°
Eccentric anomaly279.97244°
Mean motion3.76583 °/min
BSTAR0.0011542
Orbital period95.6 mins
Loading maneuver chart data...
Loading historical data...
Loading historical data...
Loading historical data...
Loading historical data...
Loading historical data...
Loading historical data...
Loading historical data...

STARLINK-1366 Visibility forecast

Observer location: undefined°, undefined

Span
Click to sort rows by Start time (UTC) header in descending order
Start Az.
Max El. time (UTC)
Max El. Az.
Max El.
End time (UTC)
End Az.
7 mins2024-12-26 19:30:41.215Z207.984° SW2024-12-26 19:33:41.215Z147.271° SSE37.722°2024-12-26 19:37:41.215Z59.78° ENE
5 mins2024-12-26 21:11:41.215Z289.795° WNW2024-12-26 21:13:41.215Z335.608° NNW25.389°2024-12-26 21:16:41.215Z29.881° NE
4 mins2024-12-27 00:33:41.215Z351.238° N2024-12-27 00:34:41.215Z8.153° NNE15.834°2024-12-27 00:37:41.215Z55.744° ENE
6 mins2024-12-27 02:12:41.215Z323.747° NNW2024-12-27 02:15:41.215Z54.948° ENE37.93°2024-12-27 02:18:41.215Z110.549° ESE
5 mins2024-12-27 03:52:41.215Z267.782° W2024-12-27 03:54:41.215Z229.483° WSW20.217°2024-12-27 03:57:41.215Z181.418° SSW
|